STARLINK-2423, 47833

Orbit data source: Space-Track

STARLINK-2423, 47833 is a payload satellite owned by SpaceX/Seattle (US) in LEO that was launched on Thu, 11 Mar 2021 UTC via an FALCON 9 launch vehicle from the Air Force Eastern Test Range (AFETR). Payload-class satellites include a variety of spacecraft equipped with specific instruments for various scientific and technological missions. These include communications satellites like Starlink; space stations such as the ISS; scientific satellites like the Hubble; Earth observation satellites from companies like Planet Labs, Umbra, and HawkEye 360; GPS; miniature CubeSats for education and research; and military/defense satellites.

Loading next visibility...
Identifier
47833, 2021-018AY
Orbit
LEO
Country
Flag of USUS
Related business
Manufacturer
SpaceX/Seattle
Mission
Operational Commercial Communications
Bus & Motor
STARLINK, Unknown motor
Mass
260 kg wet, ~248 kg dry
Launch date (UTC)
2021-03-11 (5 years ago)
Launch vehicle
FALCON 9
Launch site
Air Force Eastern Test Range (AFETR)
Object type
Payload
Rocket body
Debris
Shape & HBR
Box + 1 Pan, 10.1 m
Radar Cross Section
13.562 m², Large (>1 m²)

Expand to show TLE details & history
Last TLE update: 8 hours ago

TLE from 8 hours ago
0 STARLINK-2423
1 47833U 21018AY  26035.41308716  .00000034  00000-0  21176-4 0  9991
2 47833  53.0539  41.0029 0001443  95.3401 264.7752 15.06397208271635
Epoch: 2026-02-04T09:54Z
TLE epoch observation values (Epoch: 2026-02-04T09:54:50.730Z)
Latitude
-0.00008°
Longitude
117.71144°
Altitude
548.19 km
Speed
7.589 km/s
True Right ascension
02h 44m 00s
True Declination
0° 00' 00"
Sunlit
Object was in daylight at epoch
Visualization orbit readout
Latitude
Unknown
Longitude
Unknown
Altitude
Unknown
Speed
Unknown
Apparent Right ascension
Unknown
Apparent Declination
Unknown
Sunlit
N/A
Visualization observer readout
Local Sidereal Time
20:01:15
Azimuth
Unknown
Elevation
Unknown
Doppler factor
Unknown
Orbital elements
Apogee altitude
548.49 km
Perigee altitude
546.492 km
Semi-major axis
6,925.628 km
Eccentricity
0.00014
Inclination
53.0539°
RAAN
41.0029°
Arg. of periapsis
95.3401°
True anomaly
264.75873°
Mean anomaly
264.7752°
Eccentric anomaly
264.76697°
Mean motion
3.76578 °/min
Orbital period
95.6 mins
BSTAR
0.000021176
Loading maneuver chart data...
Computing Atmospheric mass density...
Loading historical data...
Loading historical data...
Loading historical data...
Loading historical data...
Loading historical data...
Loading historical data...
Loading historical data...

Documentation

Showing up to 5 results
|